Home   Weather   Hildesheim   Past weeks

Flag for Germany Past Weather in Hildesheim, Lower Saxony, Germany — Yesterday and Last 2 Weeks

Now
41 °F

Light rain. Passing clouds.


Feels Like: 36 °F
Forecast: 32 / 50 °F
Wind: 7 mph from North

Location: Hannover

Current Time: Apr 25, 2017 at 5:22:47 am

Latest Report: Apr 25, 2017 at 4:20 am


Visibility: N/A

Pressure: 29.62 "Hg

Humidity: 93%

Dew Point: 39 °F

Location of HildesheimLocation

Past Weather in Hildesheim — Graph

°F

Hildesheim Temperature Yesterday

Maximum temperature yesterday: 55 °F (at 1:20 pm)
Minimum temperature yesterday: 34 °F (at 12:50 am)
Average temperature yesterday: 46 °F

High & Low Weather Summary for the Past Weeks

 TemperatureHumidityPressure
High55 °F (Apr 10, 8:20 am)100% (Apr 17, 3:50 am)30.63 "Hg (Apr 17, 3:50 am)
Low25 °F (Apr 20, 4:50 am)37% (Apr 20, 4:50 pm)29.62 "Hg (Apr 25, 3:20 am)
Average44 °F73%30.11 "Hg
* Reported Apr 10 3:20 am — Apr 25 3:50 am, Hildesheim, Weather by CustomWeather, © 2017

Note: Actual official high and low records may vary slightly from our data, if they occured in-between our weather recording intervals... More about our weather records

Advertising

Hildesheim Weather History for the Previous 24 Hours

Scroll right to see more
 ConditionsComfort  
Time TempWeatherWind HumidityBarometerVisibility
3:50 am
Tue, Apr 25
41 °FLight rain. Passing clouds.7 mph93%29.65 "HgN/A
3:20 am41 °FLight rain. Passing clouds.3 mph93%29.62 "HgN/A
2:50 am43 °FLight rain. Passing clouds.8 mph93%29.65 "HgN/A
2:20 am45 °FLight rain. Passing clouds.12 mph93%29.65 "HgN/A
1:50 am46 °FLight rain. Passing clouds.7 mph87%29.65 "HgN/A
12:50 am46 °FLight rain. Passing clouds.8 mph93%29.65 "HgN/A
12:20 am46 °FLight rain. Passing clouds.6 mph93%29.68 "HgN/A
11:50 pm
Mon, Apr 24
46 °FLight rain. Passing clouds.5 mph87%29.68 "HgN/A
11:20 pm48 °FPassing clouds.7 mph82%29.71 "HgN/A
10:50 pm48 °FPassing clouds.7 mph82%29.71 "HgN/A
9:50 pm48 °FLight rain. Passing clouds.7 mph82%29.74 "HgN/A
9:20 pm48 °FLight rain. Passing clouds.6 mph82%29.77 "HgN/A
8:50 pm48 °FPassing clouds.6 mph82%29.77 "HgN/A
8:20 pm50 °FLight rain. Partly sunny.9 mph76%29.77 "HgN/A
7:50 pm50 °FLight rain. Partly sunny.12 mph76%29.80 "HgN/A
7:20 pm50 °FScattered showers. Partly sunny.16 mph71%29.80 "HgN/A
6:50 pm50 °FScattered showers. Partly sunny.10 mph76%29.80 "HgN/A
6:20 pm50 °FScattered showers. Clear.14 mph76%29.80 "HgN/A
5:50 pm50 °FScattered showers. Clear.14 mph71%29.80 "HgN/A
5:20 pm52 °FScattered showers. Partly sunny.16 mph67%29.83 "HgN/A
4:50 pm54 °FScattered showers. Partly sunny.15 mph58%29.83 "HgN/A
4:20 pm54 °FPartly sunny.15 mph58%29.83 "HgN/A
3:50 pm54 °FBroken clouds.15 mph54%29.83 "HgN/A
3:20 pm55 °FBroken clouds.10 mph55%29.86 "HgN/A
2:50 pm55 °FPartly sunny.15 mph51%29.86 "HgN/A
2:20 pm55 °FScattered showers. Partly sunny.18 mph51%29.86 "HgN/A
1:50 pm55 °FPartly sunny.17 mph47%29.86 "HgN/A
1:20 pm55 °FBroken clouds.16 mph51%29.89 "HgN/A
12:50 pm54 °FBroken clouds.18 mph54%29.89 "HgN/A
12:20 pm52 °FPartly sunny.18 mph54%29.92 "HgN/A
11:50 am52 °FPartly sunny.20 mph50%29.92 "HgN/A
11:20 am52 °FPassing clouds.16 mph54%29.95 "HgN/A
10:50 am52 °FPassing clouds.17 mph50%29.95 "HgN/A
10:20 am50 °FPassing clouds.16 mph54%29.95 "HgN/A
9:50 am48 °FSunny.15 mph62%29.98 "Hg10 mi
9:20 am46 °FPassing clouds.12 mph66%30.01 "HgN/A
8:50 am45 °FPassing clouds.12 mph66%30.01 "HgN/A
8:20 am43 °FPassing clouds.9 mph71%30.01 "HgN/A
7:50 am41 °FSunny.8 mph76%30.01 "Hg10 mi
7:20 am39 °FSunny.8 mph75%30.04 "Hg10 mi
6:50 am37 °FPassing clouds.6 mph75%30.04 "HgN/A
6:20 am36 °FSunny.6 mph81%30.04 "Hg10 mi
5:50 am36 °FClear.6 mph81%30.07 "Hg10 mi
Weather by CustomWeather, © 2017

See weather overviewHow to use our weather pages